Вернуться в каталог

NOAA 16 DEB

АктивенSSO
NORAD 41069·DEBRIS·🇺🇸 United States

Запущен Sep 21, 2000 с Vandenberg Space Force Base

Loading…

Ближайшие Пролёты (ближайшие 24 часа)

TLE

СвежийSource: Space-Track

Эпоха: Sep 14, 2026, 14:17 UTC

1 41069U 00055AC  26257.59573080  .00001224  00000-0  35278-3 0  9996
2 41069  98.6088  11.3491 0106311 269.8006  89.1001 14.43374995565524

Отслеживайте NOAA 16 DEB в реальном времени с AllMySat

Download on the App Store